Time,TemperatureF,DewpointF,PressureIn,WindDirection,WindDirectionDegrees,WindSpeedMPH,WindSpeedGustMPH,Humidity,HourlyPrecipIn,Conditions,Clouds,dailyrainin,SoftwareType,DateUTC
2013-08-31 00:00:00,76.4,73.2,29.96,ESE,111,2.0,2.0,90,0.00,,---,0.00,VWS V14.01,2013-08-31 04:00:00,
2013-08-31 00:01:00,76.4,73.2,29.96,ESE,111,2.0,2.0,90,0.00,,---,0.00,VWS V14.01,2013-08-31 04:01:00,
2013-08-31 00:02:00,76.4,73.2,29.95,East,100,2.0,3.0,90,0.00,,---,0.00,VWS V14.01,2013-08-31 04:02:00,
2013-08-31 00:07:00,76.4,73.6,29.95,NE,34,3.0,5.0,91,0.00,,---,0.00,VWS V14.01,2013-08-31 04:07:00,
2013-08-31 00:13:00,76.3,73.5,29.95,NE,35,3.0,5.0,91,0.00,,---,0.00,VWS V14.01,2013-08-31 04:13:00,
2013-08-31 00:18:00,76.2,73.4,29.95,ENE,57,2.0,5.0,91,0.00,,---,0.00,VWS V14.01,2013-08-31 04:18:00,
2013-08-31 00:23:00,76.1,73.3,29.95,ENE,58,1.0,5.0,91,0.00,,---,0.00,VWS V14.01,2013-08-31 04:23:00,
2013-08-31 00:28:00,76.0,73.2,29.95,ENE,63,3.0,3.0,91,0.00,,---,0.00,VWS V14.01,2013-08-31 04:28:00,
2013-08-31 00:33:00,75.8,73.3,29.95,East,85,2.0,3.0,92,0.00,,---,0.00,VWS V14.01,2013-08-31 04:33:00,
2013-08-31 00:38:00,75.7,73.2,29.95,ESE,107,2.0,4.0,92,0.00,,---,0.00,VWS V14.01,2013-08-31 04:38:00,
2013-08-31 00:43:00,75.6,73.1,29.95,ESE,104,3.0,5.0,92,0.00,,---,0.00,VWS V14.01,2013-08-31 04:43:00,
2013-08-31 00:48:00,75.6,73.1,29.95,ESE,107,3.0,5.0,92,0.00,,---,0.00,VWS V14.01,2013-08-31 04:48:00,
2013-08-31 00:53:00,75.7,73.2,29.95,ESE,105,2.0,5.0,92,0.00,,---,0.00,VWS V14.01,2013-08-31 04:53:00,
2013-08-31 00:58:00,75.8,73.6,29.95,ESE,105,1.0,2.0,93,0.00,,---,0.00,VWS V14.01,2013-08-31 04:58:00,
2013-08-31 01:04:00,75.7,73.5,29.95,ESE,105,1.0,3.0,93,0.00,,---,0.00,VWS V14.01,2013-08-31 05:04:00,
2013-08-31 01:09:00,75.7,73.5,29.95,ESE,107,4.0,6.0,93,0.00,,---,0.00,VWS V14.01,2013-08-31 05:09:00,
2013-08-31 01:14:00,75.8,73.6,29.94,ESE,116,4.0,6.0,93,0.00,,---,0.00,VWS V14.01,2013-08-31 05:14:00,
2013-08-31 01:19:00,76.0,73.8,29.95,ESE,103,4.0,6.0,93,0.00,,---,0.00,VWS V14.01,2013-08-31 05:19:00,
2013-08-31 01:24:00,76.0,73.8,29.95,ESE,108,3.0,6.0,93,0.00,,---,0.00,VWS V14.01,2013-08-31 05:24:00,
2013-08-31 01:29:00,76.2,74.0,29.95,ESE,109,2.0,5.0,93,0.00,,---,0.00,VWS V14.01,2013-08-31 05:29:00,
2013-08-31 01:34:00,76.3,74.1,29.94,ESE,108,1.0,5.0,93,0.00,,---,0.00,VWS V14.01,2013-08-31 05:34:00,
2013-08-31 01:39:00,76.3,74.1,29.95,ESE,108,2.0,5.0,93,0.00,,---,0.00,VWS V14.01,2013-08-31 05:39:00,
2013-08-31 01:44:00,76.2,74.0,29.95,ESE,107,3.0,5.0,93,0.00,,---,0.00,VWS V14.01,2013-08-31 05:44:00,
2013-08-31 01:49:00,76.3,74.1,29.95,ESE,108,4.0,6.0,93,0.00,,---,0.00,VWS V14.01,2013-08-31 05:49:00,
2013-08-31 01:54:00,76.3,74.4,29.94,ESE,111,5.0,6.0,94,0.00,,---,0.00,VWS V14.01,2013-08-31 05:54:00,
2013-08-31 02:00:00,76.3,74.4,29.94,ESE,113,3.0,6.0,94,0.00,,---,0.00,VWS V14.01,2013-08-31 06:00:00,
2013-08-31 02:05:00,76.4,74.6,29.94,ESE,113,4.0,6.0,94,0.00,,---,0.00,VWS V14.01,2013-08-31 06:05:00,
2013-08-31 02:10:00,76.4,74.6,29.94,ESE,113,3.0,6.0,94,0.00,,---,0.00,VWS V14.01,2013-08-31 06:10:00,
2013-08-31 02:15:00,76.5,74.7,29.94,ESE,107,2.0,6.0,94,0.00,,---,0.00,VWS V14.01,2013-08-31 06:15:00,
2013-08-31 02:20:00,76.5,74.7,29.94,ESE,109,4.0,6.0,94,0.00,,---,0.00,VWS V14.01,2013-08-31 06:20:00,
2013-08-31 02:25:00,76.5,74.7,29.94,ESE,111,4.0,6.0,94,0.00,,---,0.00,VWS V14.01,2013-08-31 06:25:00,
2013-08-31 02:30:00,76.4,74.6,29.93,SE,130,5.0,7.0,94,0.00,,---,0.00,VWS V14.01,2013-08-31 06:30:00,
2013-08-31 02:35:00,76.4,74.6,29.93,SE,126,6.0,9.0,94,0.00,,---,0.00,VWS V14.01,2013-08-31 06:35:00,
2013-08-31 02:40:00,76.4,74.6,29.93,SE,134,6.0,9.0,94,0.00,,---,0.00,VWS V14.01,2013-08-31 06:40:00,
2013-08-31 02:46:00,76.4,74.6,29.93,SE,128,6.0,11.0,94,0.00,,---,0.00,VWS V14.01,2013-08-31 06:46:00,
2013-08-31 02:51:00,76.6,74.8,29.93,SE,130,7.0,11.0,94,0.00,,---,0.00,VWS V14.01,2013-08-31 06:51:00,
2013-08-31 02:56:00,76.5,74.7,29.92,SE,133,7.0,11.0,94,0.00,,---,0.00,VWS V14.01,2013-08-31 06:56:00,
2013-08-31 03:01:00,76.6,74.8,29.93,SSE,147,7.0,9.0,94,0.00,,---,0.00,VWS V14.01,2013-08-31 07:01:00,
2013-08-31 03:06:00,76.5,74.3,29.93,SE,142,3.0,11.0,93,0.00,,---,0.00,VWS V14.01,2013-08-31 07:06:00,
2013-08-31 03:11:00,76.5,74.3,29.93,SSE,149,5.0,11.0,93,0.00,,---,0.00,VWS V14.01,2013-08-31 07:11:00,
2013-08-31 03:16:00,76.6,74.4,29.93,SE,141,5.0,11.0,93,0.00,,---,0.00,VWS V14.01,2013-08-31 07:16:00,
2013-08-31 03:21:00,76.5,74.3,29.93,SE,128,6.0,11.0,93,0.00,,---,0.00,VWS V14.01,2013-08-31 07:21:00,
2013-08-31 03:26:00,76.4,74.2,29.93,SE,129,5.0,11.0,93,0.00,,---,0.00,VWS V14.01,2013-08-31 07:26:00,
2013-08-31 03:27:00,76.4,74.2,29.93,SE,138,5.0,11.0,93,0.00,,---,0.00,VWS V14.01,2013-08-31 07:27:00,
2013-08-31 03:32:00,76.4,74.2,29.93,South,174,5.0,7.0,93,0.00,,---,0.00,VWS V14.01,2013-08-31 07:32:00,
2013-08-31 03:37:00,76.4,74.2,29.92,SE,133,6.0,7.0,93,0.00,,---,0.00,VWS V14.01,2013-08-31 07:37:00,
2013-08-31 03:42:00,76.3,73.8,29.93,SSE,162,1.0,7.0,92,0.00,,---,0.00,VWS V14.01,2013-08-31 07:42:00,
2013-08-31 03:48:00,76.3,73.8,29.93,SSE,150,3.0,7.0,92,0.00,,---,0.00,VWS V14.01,2013-08-31 07:48:00,
2013-08-31 03:53:00,76.2,73.7,29.93,SE,125,3.0,7.0,92,0.00,,---,0.00,VWS V14.01,2013-08-31 07:53:00,
2013-08-31 03:58:00,76.3,73.8,29.93,SE,134,4.0,6.0,92,0.00,,---,0.00,VWS V14.01,2013-08-31 07:58:00,
2013-08-31 04:03:00,76.2,73.4,29.93,ESE,123,2.0,6.0,91,0.00,,---,0.00,VWS V14.01,2013-08-31 08:03:00,
2013-08-31 04:08:00,76.3,73.5,29.93,ESE,123,3.0,6.0,91,0.00,,---,0.00,VWS V14.01,2013-08-31 08:08:00,
2013-08-31 04:13:00,76.1,73.3,29.93,East,92,2.0,6.0,91,0.00,,---,0.00,VWS V14.01,2013-08-31 08:13:00,
2013-08-31 04:18:00,75.5,72.7,29.93,NNE,13,3.0,6.0,91,0.00,,---,0.00,VWS V14.01,2013-08-31 08:18:00,
2013-08-31 04:23:00,74.8,72.0,29.93,NNE,18,3.0,6.0,91,0.00,,---,0.00,VWS V14.01,2013-08-31 08:23:00,
2013-08-31 04:28:00,74.4,71.9,29.93,NNE,18,2.0,3.0,92,0.00,,---,0.00,VWS V14.01,2013-08-31 08:28:00,
2013-08-31 04:34:00,74.2,71.7,29.93,NNE,18,3.0,4.0,92,0.00,,---,0.00,VWS V14.01,2013-08-31 08:34:00,
2013-08-31 04:39:00,73.8,71.7,29.93,NNE,17,3.0,4.0,93,0.00,,---,0.00,VWS V14.01,2013-08-31 08:39:00,
2013-08-31 04:44:00,73.5,71.4,29.93,NNE,19,2.0,4.0,93,0.00,,---,0.00,VWS V14.01,2013-08-31 08:44:00,
2013-08-31 04:49:00,73.7,71.9,29.93,NNE,21,3.0,6.0,94,0.00,,---,0.00,VWS V14.01,2013-08-31 08:49:00,
2013-08-31 04:54:00,73.9,72.1,29.94,NNE,22,2.0,6.0,94,0.00,,---,0.00,VWS V14.01,2013-08-31 08:54:00,
2013-08-31 04:59:00,74.0,72.2,29.94,NNE,22,1.0,2.0,94,0.00,,---,0.00,VWS V14.01,2013-08-31 08:59:00,
2013-08-31 05:04:00,74.4,72.9,29.94,NNE,22,3.0,4.0,95,0.00,,---,0.00,VWS V14.01,2013-08-31 09:04:00,
2013-08-31 05:09:00,74.3,72.8,29.94,NNE,29,4.0,5.0,95,0.00,,---,0.00,VWS V14.01,2013-08-31 09:09:00,
2013-08-31 05:14:00,74.2,72.7,29.94,NE,42,4.0,5.0,95,0.00,,---,0.00,VWS V14.01,2013-08-31 09:14:00,
2013-08-31 05:20:00,73.9,72.4,29.94,NE,40,3.0,5.0,95,0.00,,---,0.00,VWS V14.01,2013-08-31 09:20:00,
2013-08-31 05:25:00,74.0,72.5,29.94,NE,40,3.0,5.0,95,0.00,,---,0.00,VWS V14.01,2013-08-31 09:25:00,
2013-08-31 05:30:00,74.0,72.5,29.94,NE,39,2.0,3.0,95,0.00,,---,0.00,VWS V14.01,2013-08-31 09:30:00,
2013-08-31 05:35:00,74.1,72.6,29.94,NE,39,2.0,3.0,95,0.00,,---,0.00,VWS V14.01,2013-08-31 09:35:00,
2013-08-31 05:40:00,74.3,72.8,29.94,NE,39,2.0,3.0,95,0.00,,---,0.00,VWS V14.01,2013-08-31 09:40:00,
2013-08-31 05:45:00,74.2,72.7,29.94,NE,39,2.0,3.0,95,0.00,,---,0.00,VWS V14.01,2013-08-31 09:45:00,
2013-08-31 05:50:00,74.0,72.5,29.94,NE,39,3.0,4.0,95,0.00,,---,0.00,VWS V14.01,2013-08-31 09:50:00,
2013-08-31 05:55:00,74.0,72.5,29.94,NE,38,3.0,4.0,95,0.00,,---,0.00,VWS V14.01,2013-08-31 09:55:00,
2013-08-31 06:00:00,73.9,72.4,29.94,NE,38,2.0,3.0,95,0.00,,---,0.00,VWS V14.01,2013-08-31 10:00:00,
2013-08-31 06:06:00,73.7,72.2,29.94,NE,38,2.0,3.0,95,0.00,,---,0.00,VWS V14.01,2013-08-31 10:06:00,
2013-08-31 06:11:00,73.6,72.1,29.94,NE,38,2.0,3.0,95,0.00,,---,0.00,VWS V14.01,2013-08-31 10:11:00,
2013-08-31 06:16:00,73.5,72.0,29.94,NE,38,1.0,3.0,95,0.00,,---,0.00,VWS V14.01,2013-08-31 10:16:00,
2013-08-31 06:21:00,73.5,72.0,29.94,NE,38,3.0,4.0,95,0.00,,---,0.00,VWS V14.01,2013-08-31 10:21:00,
2013-08-31 06:26:00,73.2,71.7,29.94,NE,38,2.0,4.0,95,0.00,,---,0.00,VWS V14.01,2013-08-31 10:26:00,
2013-08-31 06:31:00,73.1,71.6,29.94,NE,38,1.0,3.0,95,0.00,,---,0.00,VWS V14.01,2013-08-31 10:31:00,
2013-08-31 06:36:00,72.9,71.7,29.95,NE,38,3.0,3.0,96,0.00,,---,0.00,VWS V14.01,2013-08-31 10:36:00,
2013-08-31 06:41:00,72.5,71.0,29.95,NE,37,4.0,4.0,95,0.00,,---,0.00,VWS V14.01,2013-08-31 10:41:00,
2013-08-31 06:46:00,72.5,71.3,29.95,NNE,32,3.0,5.0,96,0.00,,---,0.00,VWS V14.01,2013-08-31 10:46:00,
2013-08-31 06:52:00,72.5,71.3,29.95,NNE,32,3.0,5.0,96,0.00,,---,0.00,VWS V14.01,2013-08-31 10:52:00,
2013-08-31 06:57:00,72.5,71.3,29.95,NNE,32,2.0,5.0,96,0.01,,---,0.01,VWS V14.01,2013-08-31 10:57:00,
2013-08-31 07:02:00,72.6,71.4,29.95,NNE,32,3.0,4.0,96,0.01,,---,0.01,VWS V14.01,2013-08-31 11:02:00,
2013-08-31 07:07:00,72.6,71.4,29.95,NNE,32,4.0,4.0,96,0.01,,---,0.01,VWS V14.01,2013-08-31 11:07:00,
2013-08-31 07:12:00,72.5,71.3,29.95,NNE,25,4.0,5.0,96,0.01,,---,0.01,VWS V14.01,2013-08-31 11:12:00,
2013-08-31 07:17:00,71.8,70.6,29.95,NNE,20,4.0,6.0,96,0.01,,---,0.01,VWS V14.01,2013-08-31 11:17:00,
2013-08-31 07:22:00,71.6,70.4,29.95,NNE,22,3.0,6.0,96,0.01,,---,0.01,VWS V14.01,2013-08-31 11:22:00,
2013-08-31 07:27:00,71.6,70.4,29.95,NNE,23,4.0,4.0,96,0.01,,---,0.01,VWS V14.01,2013-08-31 11:27:00,
2013-08-31 07:32:00,71.8,70.6,29.95,NNE,24,4.0,4.0,96,0.01,,---,0.01,VWS V14.01,2013-08-31 11:32:00,
2013-08-31 07:38:00,72.1,70.9,29.95,NNE,24,1.0,4.0,96,0.01,,---,0.01,VWS V14.01,2013-08-31 11:38:00,
2013-08-31 07:43:00,72.3,71.1,29.96,NNE,24,3.0,5.0,96,0.01,,---,0.01,VWS V14.01,2013-08-31 11:43:00,
2013-08-31 07:48:00,72.3,71.1,29.96,NNE,18,4.0,5.0,96,0.01,,---,0.01,VWS V14.01,2013-08-31 11:48:00,
2013-08-31 07:53:00,72.4,71.2,29.96,NNE,19,2.0,5.0,96,0.01,,---,0.01,VWS V14.01,2013-08-31 11:53:00,
2013-08-31 07:58:00,72.7,71.5,29.96,NNE,30,2.0,4.0,96,0.00,,---,0.01,VWS V14.01,2013-08-31 11:58:00,
2013-08-31 08:03:00,72.8,71.6,29.95,NNE,26,2.0,4.0,96,0.00,,---,0.01,VWS V14.01,2013-08-31 12:03:00,
2013-08-31 08:08:00,73.0,71.8,29.95,NNE,24,4.0,4.0,96,0.00,,---,0.01,VWS V14.01,2013-08-31 12:08:00,
2013-08-31 08:13:00,73.4,72.2,29.96,NNE,22,5.0,5.0,96,0.00,,---,0.01,VWS V14.01,2013-08-31 12:13:00,
2013-08-31 08:19:00,73.5,72.3,29.96,NNE,30,4.0,6.0,96,0.00,,---,0.01,VWS V14.01,2013-08-31 12:19:00,
2013-08-31 08:24:00,73.8,72.6,29.96,NNE,19,3.0,6.0,96,0.00,,---,0.01,VWS V14.01,2013-08-31 12:24:00,
2013-08-31 08:29:00,74.3,73.1,29.96,NNE,31,2.0,4.0,96,0.00,,---,0.01,VWS V14.01,2013-08-31 12:29:00,
2013-08-31 08:34:00,74.7,73.5,29.96,NNE,25,4.0,5.0,96,0.00,,---,0.01,VWS V14.01,2013-08-31 12:34:00,
2013-08-31 08:39:00,74.8,73.6,29.96,NNE,26,4.0,5.0,96,0.00,,---,0.01,VWS V14.01,2013-08-31 12:39:00,
2013-08-31 08:44:00,75.1,73.9,29.96,NNE,22,5.0,5.0,96,0.00,,---,0.01,VWS V14.01,2013-08-31 12:44:00,
2013-08-31 08:49:00,75.3,74.1,29.96,NNE,25,3.0,5.0,96,0.00,,---,0.01,VWS V14.01,2013-08-31 12:49:00,
2013-08-31 08:54:00,75.7,74.5,29.96,NNE,32,3.0,5.0,96,0.00,,---,0.01,VWS V14.01,2013-08-31 12:54:00,
2013-08-31 08:59:00,75.7,74.2,29.96,NE,43,2.0,3.0,95,0.00,,---,0.01,VWS V14.01,2013-08-31 12:59:00,
2013-08-31 09:05:00,76.0,74.5,29.96,NE,43,2.0,4.0,95,0.00,,---,0.01,VWS V14.01,2013-08-31 13:05:00,
2013-08-31 09:10:00,76.1,74.6,29.96,NE,43,2.0,4.0,95,0.00,,---,0.01,VWS V14.01,2013-08-31 13:10:00,
2013-08-31 09:15:00,76.4,74.9,29.96,NE,46,3.0,4.0,95,0.00,,---,0.01,VWS V14.01,2013-08-31 13:15:00,
2013-08-31 09:20:00,76.4,74.6,29.97,NE,53,2.0,4.0,94,0.00,,---,0.01,VWS V14.01,2013-08-31 13:20:00,
2013-08-31 09:25:00,76.6,74.8,29.96,NE,52,3.0,4.0,94,0.00,,---,0.01,VWS V14.01,2013-08-31 13:25:00,
2013-08-31 09:30:00,76.8,74.9,29.97,NE,52,1.0,4.0,94,0.00,,---,0.01,VWS V14.01,2013-08-31 13:30:00,
2013-08-31 09:35:00,77.0,74.8,29.96,NE,52,2.0,4.0,93,0.00,,---,0.01,VWS V14.01,2013-08-31 13:35:00,
2013-08-31 09:40:00,77.3,75.1,29.97,ESE,103,2.0,6.0,93,0.00,,---,0.01,VWS V14.01,2013-08-31 13:40:00,
2013-08-31 09:45:00,77.8,75.3,29.97,ESE,113,4.0,6.0,92,0.00,,---,0.01,VWS V14.01,2013-08-31 13:45:00,
2013-08-31 09:51:00,78.1,75.3,29.97,ESE,111,4.0,6.0,91,0.00,,---,0.01,VWS V14.01,2013-08-31 13:51:00,
2013-08-31 09:56:00,78.4,75.2,29.97,ESE,116,5.0,7.0,90,0.00,,---,0.01,VWS V14.01,2013-08-31 13:56:00,
2013-08-31 10:01:00,78.9,75.4,29.97,ESE,113,1.0,6.0,89,0.00,,---,0.01,VWS V14.01,2013-08-31 14:01:00,
2013-08-31 10:06:00,79.2,75.3,29.97,ESE,118,2.0,6.0,88,0.00,,---,0.01,VWS V14.01,2013-08-31 14:06:00,
2013-08-31 10:11:00,79.4,75.2,29.97,SE,131,0.0,8.0,87,0.00,,---,0.01,VWS V14.01,2013-08-31 14:11:00,
2013-08-31 10:16:00,79.8,75.2,29.97,SE,128,2.0,8.0,86,0.00,,---,0.01,VWS V14.01,2013-08-31 14:16:00,
2013-08-31 10:21:00,80.1,75.2,29.97,East,96,3.0,8.0,85,0.00,,---,0.01,VWS V14.01,2013-08-31 14:21:00,
2013-08-31 10:26:00,79.8,74.9,29.98,SE,141,4.0,8.0,85,0.00,,---,0.01,VWS V14.01,2013-08-31 14:26:00,
2013-08-31 10:31:00,79.8,74.9,29.97,ESE,111,4.0,7.0,85,0.00,,---,0.01,VWS V14.01,2013-08-31 14:31:00,
2013-08-31 10:37:00,80.0,75.4,29.97,SE,135,5.0,7.0,86,0.00,,---,0.01,VWS V14.01,2013-08-31 14:37:00,
2013-08-31 10:42:00,80.2,75.3,29.98,ESE,122,3.0,7.0,85,0.00,,---,0.01,VWS V14.01,2013-08-31 14:42:00,
2013-08-31 10:47:00,80.4,75.5,29.98,ESE,123,7.0,7.0,85,0.00,,---,0.01,VWS V14.01,2013-08-31 14:47:00,
2013-08-31 10:52:00,80.5,75.2,29.98,SE,138,3.0,8.0,84,0.00,,---,0.01,VWS V14.01,2013-08-31 14:52:00,
2013-08-31 10:57:00,80.7,75.4,29.98,SE,128,3.0,8.0,84,0.00,,---,0.01,VWS V14.01,2013-08-31 14:57:00,
2013-08-31 11:02:00,80.8,75.5,29.98,ESE,103,4.0,7.0,84,0.00,,---,0.01,VWS V14.01,2013-08-31 15:02:00,
2013-08-31 11:07:00,80.5,75.2,29.97,ESE,107,5.0,8.0,84,0.00,,---,0.01,VWS V14.01,2013-08-31 15:07:00,
2013-08-31 11:12:00,80.5,75.2,29.97,ESE,111,5.0,10.0,84,0.00,,---,0.01,VWS V14.01,2013-08-31 15:12:00,
2013-08-31 11:17:00,80.4,75.1,29.98,ESE,113,3.0,10.0,84,0.00,,---,0.01,VWS V14.01,2013-08-31 15:17:00,
2013-08-31 11:22:00,80.6,75.3,29.98,ESE,114,7.0,10.0,84,0.00,,---,0.01,VWS V14.01,2013-08-31 15:22:00,
2013-08-31 11:27:00,80.5,75.2,29.97,ESE,121,4.0,6.0,84,0.00,,---,0.01,VWS V14.01,2013-08-31 15:27:00,
2013-08-31 11:32:00,80.3,75.0,29.97,ESE,111,3.0,9.0,84,0.00,,---,0.01,VWS V14.01,2013-08-31 15:32:00,
2013-08-31 11:37:00,80.4,75.1,29.97,SE,140,2.0,9.0,84,0.00,,---,0.01,VWS V14.01,2013-08-31 15:37:00,
2013-08-31 11:42:00,80.4,75.1,29.97,ESE,111,3.0,9.0,84,0.00,,---,0.01,VWS V14.01,2013-08-31 15:42:00,
2013-08-31 11:48:00,80.4,75.1,29.97,SE,132,2.0,9.0,84,0.00,,---,0.01,VWS V14.01,2013-08-31 15:48:00,
2013-08-31 11:53:00,80.7,75.8,29.97,ESE,116,4.0,10.0,85,0.00,,---,0.01,VWS V14.01,2013-08-31 15:53:00,
2013-08-31 11:58:00,80.9,75.6,29.97,SE,127,4.0,7.0,84,0.00,,---,0.01,VWS V14.01,2013-08-31 15:58:00,
2013-08-31 12:03:00,81.1,75.8,29.97,ESE,122,3.0,8.0,84,0.00,,---,0.01,VWS V14.01,2013-08-31 16:03:00,
2013-08-31 12:08:00,81.1,75.4,29.96,ESE,120,2.0,8.0,83,0.00,,---,0.01,VWS V14.01,2013-08-31 16:08:00,
2013-08-31 12:13:00,81.1,75.4,29.97,SE,127,2.0,9.0,83,0.00,,---,0.01,VWS V14.01,2013-08-31 16:13:00,
2013-08-31 12:18:00,81.3,75.7,29.97,ESE,113,4.0,9.0,83,0.00,,---,0.01,VWS V14.01,2013-08-31 16:18:00,
2013-08-31 12:23:00,81.4,75.7,29.96,SE,145,5.0,9.0,83,0.00,,---,0.01,VWS V14.01,2013-08-31 16:23:00,
2013-08-31 12:28:00,81.4,75.7,29.97,ESE,122,5.0,9.0,83,0.00,,---,0.01,VWS V14.01,2013-08-31 16:28:00,
2013-08-31 12:33:00,81.4,75.4,29.97,SE,134,8.0,9.0,82,0.00,,---,0.01,VWS V14.01,2013-08-31 16:33:00,
2013-08-31 12:38:00,81.2,75.6,29.96,SE,133,7.0,9.0,83,0.00,,---,0.01,VWS V14.01,2013-08-31 16:38:00,
2013-08-31 12:43:00,81.3,75.7,29.96,ESE,117,3.0,9.0,83,0.00,,---,0.01,VWS V14.01,2013-08-31 16:43:00,
2013-08-31 12:48:00,81.3,75.7,29.96,ESE,118,4.0,9.0,83,0.00,,---,0.01,VWS V14.01,2013-08-31 16:48:00,
2013-08-31 12:53:00,81.4,75.7,29.96,SE,136,3.0,10.0,83,0.00,,---,0.01,VWS V14.01,2013-08-31 16:53:00,
2013-08-31 12:58:00,81.6,75.6,29.96,SE,140,3.0,9.0,82,0.00,,---,0.01,VWS V14.01,2013-08-31 16:58:00,
2013-08-31 13:04:00,81.6,75.6,29.96,ESE,103,4.0,11.0,82,0.00,,---,0.01,VWS V14.01,2013-08-31 17:04:00,
2013-08-31 13:09:00,81.6,75.6,29.95,ESE,119,4.0,11.0,82,0.00,,---,0.01,VWS V14.01,2013-08-31 17:09:00,
2013-08-31 13:14:00,81.7,75.7,29.96,ESE,119,6.0,12.0,82,0.00,,---,0.01,VWS V14.01,2013-08-31 17:14:00,
2013-08-31 13:19:00,82.0,76.0,29.96,SE,132,8.0,12.0,82,0.00,,---,0.01,VWS V14.01,2013-08-31 17:19:00,
2013-08-31 13:24:00,82.1,76.1,29.96,SE,126,4.0,12.0,82,0.00,,---,0.01,VWS V14.01,2013-08-31 17:24:00,
2013-08-31 13:29:00,82.2,76.2,29.96,SE,124,7.0,12.0,82,0.00,,---,0.01,VWS V14.01,2013-08-31 17:29:00,
2013-08-31 13:34:00,82.5,76.1,29.96,ESE,111,4.0,12.0,81,0.00,,---,0.01,VWS V14.01,2013-08-31 17:34:00,
2013-08-31 13:39:00,82.6,76.2,29.96,ESE,114,3.0,12.0,81,0.00,,---,0.01,VWS V14.01,2013-08-31 17:39:00,
2013-08-31 13:44:00,82.5,76.1,29.96,ESE,119,7.0,12.0,81,0.00,,---,0.01,VWS V14.01,2013-08-31 17:44:00,
2013-08-31 13:49:00,82.7,75.9,29.95,SE,139,9.0,12.0,80,0.00,,---,0.01,VWS V14.01,2013-08-31 17:49:00,
2013-08-31 13:54:00,82.8,76.0,29.95,SE,144,10.0,12.0,80,0.00,,---,0.01,VWS V14.01,2013-08-31 17:54:00,
2013-08-31 13:59:00,83.0,76.2,29.95,SE,130,7.0,13.0,80,0.00,,---,0.01,VWS V14.01,2013-08-31 17:59:00,
2013-08-31 14:04:00,83.2,76.0,29.94,SE,130,11.0,13.0,79,0.00,,---,0.01,VWS V14.01,2013-08-31 18:04:00,
2013-08-31 14:09:00,83.1,75.9,29.94,ESE,114,11.0,14.0,79,0.00,,---,0.01,VWS V14.01,2013-08-31 18:09:00,
2013-08-31 14:14:00,83.2,76.4,29.94,SE,125,9.0,14.0,80,0.00,,---,0.01,VWS V14.01,2013-08-31 18:14:00,
2013-08-31 14:19:00,83.1,76.3,29.94,SE,126,5.0,14.0,80,0.00,,---,0.01,VWS V14.01,2013-08-31 18:19:00,
2013-08-31 14:25:00,83.3,76.1,29.94,SE,130,7.0,15.0,79,0.00,,---,0.01,VWS V14.01,2013-08-31 18:25:00,
2013-08-31 14:30:00,83.2,76.0,29.94,ESE,111,13.0,13.0,79,0.00,,---,0.01,VWS V14.01,2013-08-31 18:30:00,
2013-08-31 14:35:00,83.1,75.9,29.93,SE,142,10.0,15.0,79,0.00,,---,0.01,VWS V14.01,2013-08-31 18:35:00,
2013-08-31 14:40:00,82.9,76.1,29.93,ESE,121,13.0,15.0,80,0.00,,---,0.01,VWS V14.01,2013-08-31 18:40:00,
2013-08-31 14:45:00,82.9,76.1,29.93,SE,132,6.0,15.0,80,0.00,,---,0.01,VWS V14.01,2013-08-31 18:45:00,
2013-08-31 14:50:00,83.2,76.4,29.93,SSE,154,3.0,15.0,80,0.00,,---,0.01,VWS V14.01,2013-08-31 18:50:00,
2013-08-31 14:55:00,83.4,76.6,29.92,SSE,163,4.0,15.0,80,0.00,,---,0.01,VWS V14.01,2013-08-31 18:55:00,
2013-08-31 15:00:00,83.8,77.0,29.92,SE,146,9.0,10.0,80,0.00,,---,0.01,VWS V14.01,2013-08-31 19:00:00,
2013-08-31 15:05:00,84.2,77.0,29.92,ESE,123,4.0,12.0,79,0.00,,---,0.01,VWS V14.01,2013-08-31 19:05:00,
2013-08-31 15:10:00,84.4,76.8,29.92,SSE,161,10.0,12.0,78,0.00,,---,0.01,VWS V14.01,2013-08-31 19:10:00,
2013-08-31 15:15:00,84.7,77.1,29.92,SE,134,5.0,12.0,78,0.00,,---,0.01,VWS V14.01,2013-08-31 19:15:00,
2013-08-31 15:20:00,84.6,77.0,29.91,SE,136,3.0,12.0,78,0.00,,---,0.01,VWS V14.01,2013-08-31 19:20:00,
2013-08-31 15:25:00,84.2,76.6,29.91,ESE,123,3.0,12.0,78,0.00,,---,0.01,VWS V14.01,2013-08-31 19:25:00,
2013-08-31 15:30:00,84.2,76.6,29.91,SE,141,4.0,12.0,78,0.00,,---,0.01,VWS V14.01,2013-08-31 19:30:00,
2013-08-31 15:35:00,84.4,77.2,29.91,SE,145,6.0,12.0,79,0.00,,---,0.01,VWS V14.01,2013-08-31 19:35:00,
2013-08-31 15:40:00,84.8,77.2,29.91,ESE,104,6.0,12.0,78,0.00,,---,0.01,VWS V14.01,2013-08-31 19:40:00,
2013-08-31 15:46:00,84.5,76.9,29.91,SE,134,7.0,12.0,78,0.00,,---,0.01,VWS V14.01,2013-08-31 19:46:00,
2013-08-31 15:51:00,84.0,76.8,29.90,SE,137,5.0,14.0,79,0.00,,---,0.01,VWS V14.01,2013-08-31 19:51:00,
2013-08-31 15:56:00,84.3,77.5,29.90,SSE,153,4.0,14.0,80,0.00,,---,0.01,VWS V14.01,2013-08-31 19:56:00,
2013-08-31 16:01:00,84.6,77.4,29.90,SE,146,7.0,11.0,79,0.00,,---,0.01,VWS V14.01,2013-08-31 20:01:00,
2013-08-31 16:06:00,84.6,77.4,29.90,South,171,7.0,11.0,79,0.00,,---,0.01,VWS V14.01,2013-08-31 20:06:00,
2013-08-31 16:11:00,84.6,77.4,29.90,SE,146,7.0,11.0,79,0.00,,---,0.01,VWS V14.01,2013-08-31 20:11:00,
2013-08-31 16:16:00,84.5,77.3,29.90,South,172,6.0,12.0,79,0.00,,---,0.01,VWS V14.01,2013-08-31 20:16:00,
2013-08-31 16:21:00,84.4,77.2,29.90,South,171,12.0,14.0,79,0.00,,---,0.01,VWS V14.01,2013-08-31 20:21:00,
2013-08-31 16:26:00,83.8,77.3,29.90,SSE,166,11.0,14.0,81,0.00,,---,0.01,VWS V14.01,2013-08-31 20:26:00,
2013-08-31 16:31:00,83.9,77.1,29.90,SSE,148,10.0,13.0,80,0.00,,---,0.01,VWS V14.01,2013-08-31 20:31:00,
2013-08-31 16:36:00,84.4,77.6,29.90,South,171,7.0,13.0,80,0.00,,---,0.01,VWS V14.01,2013-08-31 20:36:00,
2013-08-31 16:41:00,84.8,77.6,29.90,South,185,9.0,13.0,79,0.00,,---,0.01,VWS V14.01,2013-08-31 20:41:00,
2013-08-31 16:46:00,85.0,77.8,29.90,South,191,10.0,13.0,79,0.00,,---,0.01,VWS V14.01,2013-08-31 20:46:00,
2013-08-31 16:51:00,85.1,77.9,29.90,South,180,9.0,13.0,79,0.00,,---,0.01,VWS V14.01,2013-08-31 20:51:00,
2013-08-31 16:56:00,85.3,77.7,29.90,South,172,5.0,13.0,78,0.00,,---,0.01,VWS V14.01,2013-08-31 20:56:00,
2013-08-31 17:01:00,85.4,77.8,29.89,South,182,9.0,10.0,78,0.00,,---,0.01,VWS V14.01,2013-08-31 21:01:00,
2013-08-31 17:07:00,85.5,77.9,29.89,SE,144,5.0,11.0,78,0.00,,---,0.01,VWS V14.01,2013-08-31 21:07:00,
2013-08-31 17:12:00,85.6,78.0,29.89,South,175,7.0,11.0,78,0.00,,---,0.01,VWS V14.01,2013-08-31 21:12:00,
2013-08-31 17:17:00,85.9,77.9,29.89,South,184,10.0,12.0,77,0.00,,---,0.01,VWS V14.01,2013-08-31 21:17:00,
2013-08-31 17:22:00,85.9,77.9,29.89,South,185,6.0,12.0,77,0.00,,---,0.01,VWS V14.01,2013-08-31 21:22:00,
2013-08-31 17:27:00,85.9,77.9,29.90,South,185,3.0,12.0,77,0.00,,---,0.01,VWS V14.01,2013-08-31 21:27:00,
2013-08-31 17:32:00,86.0,77.9,29.89,South,175,10.0,10.0,77,0.00,,---,0.01,VWS V14.01,2013-08-31 21:32:00,
2013-08-31 17:37:00,86.1,78.1,29.89,South,191,10.0,11.0,77,0.00,,---,0.01,VWS V14.01,2013-08-31 21:37:00,
2013-08-31 17:42:00,86.3,78.2,29.90,South,173,4.0,11.0,77,0.00,,---,0.01,VWS V14.01,2013-08-31 21:42:00,
2013-08-31 17:47:00,86.5,78.4,29.90,South,181,5.0,11.0,77,0.00,,---,0.01,VWS V14.01,2013-08-31 21:47:00,
2013-08-31 17:52:00,86.6,78.5,29.90,South,175,7.0,11.0,77,0.00,,---,0.01,VWS V14.01,2013-08-31 21:52:00,
2013-08-31 17:57:00,86.7,78.2,29.90,South,190,6.0,11.0,76,0.00,,---,0.01,VWS V14.01,2013-08-31 21:57:00,
2013-08-31 18:02:00,86.4,77.9,29.90,South,171,6.0,9.0,76,0.00,,---,0.01,VWS V14.01,2013-08-31 22:02:00,
2013-08-31 18:07:00,86.4,77.9,29.90,South,186,7.0,12.0,76,0.00,,---,0.01,VWS V14.01,2013-08-31 22:07:00,
2013-08-31 18:12:00,86.2,77.8,29.90,South,179,5.0,12.0,76,0.00,,---,0.01,VWS V14.01,2013-08-31 22:12:00,
2013-08-31 18:17:00,86.1,77.7,29.90,South,187,5.0,12.0,76,0.00,,---,0.01,VWS V14.01,2013-08-31 22:17:00,
2013-08-31 18:22:00,86.1,77.7,29.90,South,180,4.0,12.0,76,0.00,,---,0.01,VWS V14.01,2013-08-31 22:22:00,
2013-08-31 18:27:00,85.8,77.4,29.89,SSW,193,5.0,6.0,76,0.00,,---,0.01,VWS V14.01,2013-08-31 22:27:00,
2013-08-31 18:33:00,85.7,77.7,29.89,South,175,5.0,10.0,77,0.00,,---,0.01,VWS V14.01,2013-08-31 22:33:00,
2013-08-31 18:38:00,85.6,77.2,29.90,South,182,7.0,10.0,76,0.00,,---,0.01,VWS V14.01,2013-08-31 22:38:00,
2013-08-31 18:43:00,85.6,77.6,29.90,SE,139,7.0,10.0,77,0.00,,---,0.01,VWS V14.01,2013-08-31 22:43:00,
2013-08-31 18:48:00,85.6,77.2,29.90,South,186,7.0,10.0,76,0.00,,---,0.01,VWS V14.01,2013-08-31 22:48:00,
2013-08-31 18:53:00,85.6,77.6,29.90,South,175,3.0,10.0,77,0.00,,---,0.01,VWS V14.01,2013-08-31 22:53:00,
2013-08-31 18:58:00,85.9,77.9,29.90,SSW,196,4.0,7.0,77,0.00,,---,0.01,VWS V14.01,2013-08-31 22:58:00,
2013-08-31 19:03:00,85.8,77.8,29.90,South,181,5.0,11.0,77,0.00,,---,0.01,VWS V14.01,2013-08-31 23:03:00,
2013-08-31 19:08:00,85.5,77.5,29.90,South,189,5.0,11.0,77,0.00,,---,0.01,VWS V14.01,2013-08-31 23:08:00,
2013-08-31 19:13:00,85.2,77.6,29.90,SSW,193,8.0,11.0,78,0.00,,---,0.01,VWS V14.01,2013-08-31 23:13:00,
2013-08-31 19:18:00,84.6,77.0,29.90,South,182,5.0,11.0,78,0.00,,---,0.01,VWS V14.01,2013-08-31 23:18:00,
2013-08-31 19:23:00,84.1,76.9,29.90,South,184,5.0,11.0,79,0.00,,---,0.01,VWS V14.01,2013-08-31 23:23:00,
2013-08-31 19:28:00,83.4,76.2,29.90,SSW,192,4.0,7.0,79,0.00,,---,0.01,VWS V14.01,2013-08-31 23:28:00,
2013-08-31 19:33:00,82.8,76.0,29.90,South,178,4.0,11.0,80,0.00,,---,0.01,VWS V14.01,2013-08-31 23:33:00,
2013-08-31 19:38:00,82.2,75.8,29.90,South,189,11.0,11.0,81,0.00,,---,0.01,VWS V14.01,2013-08-31 23:38:00,
2013-08-31 19:43:00,81.7,75.7,29.89,SSW,197,11.0,11.0,82,0.00,,---,0.01,VWS V14.01,2013-08-31 23:43:00,
2013-08-31 19:48:00,81.2,75.2,29.89,SSW,196,10.0,12.0,82,0.00,,---,0.01,VWS V14.01,2013-08-31 23:48:00,
2013-08-31 19:54:00,80.7,75.1,29.90,SSW,194,10.0,13.0,83,0.00,,---,0.01,VWS V14.01,2013-08-31 23:54:00,
2013-08-31 19:59:00,80.4,74.8,29.90,SSW,192,10.0,10.0,83,0.00,,---,0.01,VWS V14.01,2013-08-31 23:59:00,
2013-08-31 20:04:00,80.2,74.9,29.90,South,190,6.0,11.0,84,0.00,,---,0.01,VWS V14.01,2013-09-01 00:04:00,
2013-08-31 20:09:00,80.0,75.1,29.90,South,189,5.0,11.0,85,0.00,,---,0.01,VWS V14.01,2013-09-01 00:09:00,
2013-08-31 20:14:00,79.9,75.0,29.90,SSW,203,7.0,11.0,85,0.00,,---,0.01,VWS V14.01,2013-09-01 00:14:00,
2013-08-31 20:19:00,79.7,74.8,29.91,SSW,208,10.0,11.0,85,0.00,,---,0.01,VWS V14.01,2013-09-01 00:19:00,
2013-08-31 20:24:00,79.5,74.6,29.91,SSW,193,7.0,11.0,85,0.00,,---,0.01,VWS V14.01,2013-09-01 00:24:00,
2013-08-31 20:29:00,79.4,74.8,29.91,SSW,202,7.0,11.0,86,0.00,,---,0.01,VWS V14.01,2013-09-01 00:29:00,
2013-08-31 20:34:00,79.3,74.8,29.91,SSW,206,6.0,11.0,86,0.00,,---,0.01,VWS V14.01,2013-09-01 00:34:00,
2013-08-31 20:39:00,79.2,74.7,29.91,SSW,205,5.0,11.0,86,0.00,,---,0.01,VWS V14.01,2013-09-01 00:39:00,
2013-08-31 20:44:00,79.2,74.7,29.91,South,191,9.0,11.0,86,0.00,,---,0.01,VWS V14.01,2013-09-01 00:44:00,
2013-08-31 20:49:00,79.1,74.9,29.91,SSW,202,7.0,11.0,87,0.00,,---,0.01,VWS V14.01,2013-09-01 00:49:00,
2013-08-31 20:54:00,79.1,74.9,29.92,SSW,207,7.0,11.0,87,0.00,,---,0.01,VWS V14.01,2013-09-01 00:54:00,
2013-08-31 21:00:00,79.1,74.9,29.91,SSW,209,12.0,13.0,87,0.00,,---,0.01,VWS V14.01,2013-09-01 01:00:00,
2013-08-31 21:05:00,79.0,74.8,29.91,SSW,198,7.0,13.0,87,0.00,,---,0.01,VWS V14.01,2013-09-01 01:05:00,
2013-08-31 21:10:00,79.0,74.8,29.91,SSW,205,9.0,13.0,87,0.00,,---,0.01,VWS V14.01,2013-09-01 01:10:00,
2013-08-31 21:15:00,78.9,74.7,29.91,SSW,204,10.0,13.0,87,0.00,,---,0.01,VWS V14.01,2013-09-01 01:15:00,
2013-08-31 21:20:00,78.9,75.1,29.91,SSW,199,9.0,13.0,88,0.00,,---,0.01,VWS V14.01,2013-09-01 01:20:00,
2013-08-31 21:25:00,79.0,75.2,29.91,SSW,212,7.0,13.0,88,0.00,,---,0.01,VWS V14.01,2013-09-01 01:25:00,
2013-08-31 21:30:00,78.9,75.1,29.91,SSW,203,9.0,11.0,88,0.00,,---,0.01,VWS V14.01,2013-09-01 01:30:00,
2013-08-31 21:35:00,78.9,75.1,29.91,South,190,11.0,12.0,88,0.00,,---,0.01,VWS V14.01,2013-09-01 01:35:00,
2013-08-31 21:40:00,78.9,75.4,29.91,South,190,7.0,13.0,89,0.00,,---,0.01,VWS V14.01,2013-09-01 01:40:00,
2013-08-31 21:45:00,78.9,75.4,29.90,SSW,196,5.0,13.0,89,0.00,,---,0.01,VWS V14.01,2013-09-01 01:45:00,
2013-08-31 21:50:00,78.8,75.3,29.91,SSW,207,7.0,13.0,89,0.00,,---,0.01,VWS V14.01,2013-09-01 01:50:00,
2013-08-31 21:55:00,78.7,75.2,29.91,SSW,204,7.0,13.0,89,0.00,,---,0.01,VWS V14.01,2013-09-01 01:55:00,
2013-08-31 22:00:00,78.7,75.2,29.91,SSW,197,10.0,11.0,89,0.00,,---,0.01,VWS V14.01,2013-09-01 02:00:00,
2013-08-31 22:05:00,78.7,75.2,29.91,SSW,202,12.0,13.0,89,0.00,,---,0.01,VWS V14.01,2013-09-01 02:05:00,
2013-08-31 22:10:00,78.7,75.2,29.91,SSW,194,10.0,13.0,89,0.00,,---,0.01,VWS V14.01,2013-09-01 02:10:00,
2013-08-31 22:16:00,78.6,75.1,29.91,SSW,211,10.0,13.0,89,0.00,,---,0.01,VWS V14.01,2013-09-01 02:16:00,
2013-08-31 22:21:00,78.7,75.2,29.91,SSW,202,7.0,13.0,89,0.00,,---,0.01,VWS V14.01,2013-09-01 02:21:00,
2013-08-31 22:26:00,78.7,75.2,29.91,SSW,194,7.0,13.0,89,0.00,,---,0.01,VWS V14.01,2013-09-01 02:26:00,
2013-08-31 22:31:00,78.7,75.5,29.92,SSW,209,3.0,8.0,90,0.00,,---,0.01,VWS V14.01,2013-09-01 02:31:00,
2013-08-31 22:36:00,78.7,75.5,29.92,SSW,199,4.0,11.0,90,0.00,,---,0.01,VWS V14.01,2013-09-01 02:36:00,
2013-08-31 22:41:00,78.7,75.5,29.91,SSW,197,10.0,11.0,90,0.00,,---,0.01,VWS V14.01,2013-09-01 02:41:00,
2013-08-31 22:46:00,78.7,75.5,29.91,SSW,208,7.0,11.0,90,0.00,,---,0.01,VWS V14.01,2013-09-01 02:46:00,
2013-08-31 22:51:00,78.7,75.5,29.92,SSW,211,7.0,11.0,90,0.00,,---,0.01,VWS V14.01,2013-09-01 02:51:00,
2013-08-31 22:56:00,78.7,75.5,29.92,SSW,198,4.0,11.0,90,0.00,,---,0.01,VWS V14.01,2013-09-01 02:56:00,
2013-08-31 23:01:00,78.7,75.5,29.92,SSW,197,7.0,11.0,90,0.00,,---,0.01,VWS V14.01,2013-09-01 03:01:00,
2013-08-31 23:06:00,78.7,75.5,29.92,SSW,207,6.0,12.0,90,0.00,,---,0.01,VWS V14.01,2013-09-01 03:06:00,
2013-08-31 23:11:00,78.7,75.9,29.92,SW,215,3.0,12.0,91,0.00,,---,0.01,VWS V14.01,2013-09-01 03:11:00,
2013-08-31 23:16:00,78.7,75.9,29.92,SW,226,4.0,12.0,91,0.00,,---,0.01,VWS V14.01,2013-09-01 03:16:00,
2013-08-31 23:21:00,78.7,75.9,29.92,SW,230,6.0,12.0,91,0.00,,---,0.01,VWS V14.01,2013-09-01 03:21:00,
2013-08-31 23:26:00,78.6,75.8,29.92,WSW,237,6.0,12.0,91,0.00,,---,0.01,VWS V14.01,2013-09-01 03:26:00,
2013-08-31 23:31:00,78.5,75.7,29.92,SSW,211,5.0,8.0,91,0.00,,---,0.01,VWS V14.01,2013-09-01 03:31:00,
2013-08-31 23:37:00,78.5,75.7,29.92,WSW,240,4.0,8.0,91,0.00,,---,0.01,VWS V14.01,2013-09-01 03:37:00,
2013-08-31 23:42:00,78.5,75.7,29.92,SW,220,7.0,9.0,91,0.00,,---,0.01,VWS V14.01,2013-09-01 03:42:00,
2013-08-31 23:47:00,78.4,75.6,29.92,SW,235,7.0,10.0,91,0.00,,---,0.01,VWS V14.01,2013-09-01 03:47:00,
2013-08-31 23:52:00,78.3,75.5,29.92,SW,219,7.0,10.0,91,0.00,,---,0.01,VWS V14.01,2013-09-01 03:52:00,
2013-08-31 23:57:00,78.3,75.5,29.92,SW,233,3.0,12.0,91,0.00,,---,0.01,VWS V14.01,2013-09-01 03:57:00,